STARLINK-11134, 59956

Orbit data source: Space-Track

STARLINK-11134, 59956 is a payload satellite owned by SpaceX/Seattle (US) in LEO that was launched on Wed, 05 Jun 2024 UTC via an FALCON 9 launch vehicle from the Air Force Eastern Test Range (AFETR). Payload-class satellites include a variety of spacecraft equipped with specific instruments for various scientific and technological missions. These include communications satellites like Starlink; space stations such as the ISS; scientific satellites like the Hubble; Earth observation satellites from companies like Planet Labs, Umbra, and HawkEye 360; GPS; miniature CubeSats for education and research; and military/defense satellites.

Loading next visibility...
Identifier
59956, 2024-107M
Orbit
LEO
Country
Flag of USUS
Related business
Manufacturer
SpaceX/Seattle
Mission
Operational spacecraft
Bus & Motor
STARLINK V2MD, Unknown motor
Mass
960 kg wet, ~910 kg dry
Launch date (UTC)
2024-06-05 (1 year ago)
Launch vehicle
FALCON 9
Launch site
Air Force Eastern Test Range (AFETR)
Object type
Payload
Rocket body
Debris
Shape & HBR
Unknown
Radar Cross Section
Large (>1 m²)

Expand to show TLE details & history
Last TLE update: 1 day ago

TLE from 1 day ago
0 STARLINK-11134
1 59956U 24107M   25260.59961712 -.00000982  00000-0 -32440-5 0  9992
2 59956  53.1586  24.2840 0001402  72.1688 287.9483 15.69713429 74899
Epoch: 2025-09-17T14:23Z
TLE epoch observation values (Epoch: 2025-09-17T14:23:26.919Z)
Latitude
0.00001°
Longitude
171.6486°
Altitude
360.341 km
Speed
7.694 km/s
True Right ascension
01h 37m 08s
True Declination
0° 00' 00"
Sunlit
Object was in full shadow at epoch
Visualization orbit readout
Latitude
Unknown
Longitude
Unknown
Altitude
Unknown
Speed
Unknown
Apparent Right ascension
Unknown
Apparent Declination
Unknown
Sunlit
N/A
Visualization observer readout
Local Sidereal Time
13:52:14
Azimuth
Unknown
Elevation
Unknown
Doppler factor
Unknown
Orbital elements
Apogee altitude
360.923 km
Perigee altitude
359.033 km
Semi-major axis
6,738.115 km
Eccentricity
0.00014
Inclination
53.1586°
RAAN
24.284°
Arg. of periapsis
72.1688°
True anomaly
287.93302°
Mean anomaly
287.9483°
Eccentric anomaly
287.94066°
Mean motion
3.92406 °/min
Orbital period
91.74 mins
BSTAR
-0.000003244
Loading maneuver chart data...
Computing Atmospheric mass density...
Loading historical data...
Loading historical data...
Loading historical data...
Loading historical data...
Loading historical data...
Loading historical data...
Loading historical data...

Documentation

Showing up to 5 results
|